Weather History for K11R - April, 2014

Change the Weather History Date:

Wednesday, April 16, 2014

  Actual Average (KCLL) Record (KCLL)
Temperature  
Mean Temperature 52 °F 69 °F  
Max Temperature 68 °F 79 °F 96 °F (1920)
Min Temperature 37 °F 58 °F 36 °F (1961)
Degree Days  
Heating Degree Days 13 1  
Month to date heating degree days 36  
Since 1 July heating degree days 1595  
Cooling Degree Days 0 5  
Month to date cooling degree days 65  
Year to date cooling degree days 152  
Growing Degree Days 2 (Base 50)    
Moisture  
Dew Point 43 °F    
Average Humidity 70    
Maximum Humidity 94    
Minimum Humidity 46    
Precipitation  
Precipitation 0.00 in 0.08 in 2.02 in (1976)
Month to date precipitation 1.26  
Year to date precipitation 10.52  
Sea Level Pressure  
Sea Level Pressure 30.10 in    
Wind  
Wind Speed 4 mph (SE)    
Max Wind Speed 16 mph    
Max Gust Speed 24 mph    
Visibility 10 miles    
Events      
T = Trace of Precipitation, MM = Missing Value Source: NWS Daily Summary

Daily Weather History Graph

Daily Weather History Graph

Search for Another Location

Airport or City:

Trip Planner

Search our weather history database for the weather conditions in past years. The results will help you decide how hot, cold, wet, or windy it might be!

Date:

Astronomy

Apr. 16, 2014 Rise Set
Actual Time 6:57 AM CDT 7:53 PM CDT
Civil Twilight 6:32 AM CDT 8:18 PM CDT
Nautical Twilight 6:03 AM CDT 8:47 PM CDT
Astronomical Twilight 5:33 AM CDT 9:17 PM CDT
Moon 9:32 PM CDT (4/16) 7:50 AM CDT (4/16)
Length of Visible Light 13h 45m
Length of Day
12h 56m
Full, 98% of the Moon is Illuminated
Apr 16
Full
Apr 22
Last Quarter
Apr 29
New
May 6
First Quarter
May 14
Full

Hourly Weather History & Observations

Time (CDT) Temp. Windchill Dew Point Humidity Pressure Visibility Wind Dir Wind Speed Gust Speed Precip Events Conditions
12:15 AM 42.1 °F - 39.2 °F 90% 30.18 in 10.0 mi Calm Calm - N/A   Clear
12:35 AM 41.5 °F - 38.8 °F 90% 30.18 in 10.0 mi Calm Calm - N/A   Clear
12:55 AM 40.3 °F - 37.8 °F 91% 30.18 in 10.0 mi Calm Calm - N/A   Clear
1:15 AM 39.2 °F - 37.4 °F 93% 30.16 in 10.0 mi Calm Calm - N/A   Clear
1:35 AM 39.9 °F - 38.3 °F 94% 30.16 in 10.0 mi Calm Calm - N/A   Clear
1:55 AM 40.3 °F - 38.7 °F 94% 30.16 in 10.0 mi Calm Calm - N/A   Clear
2:15 AM 38.8 °F - 36.9 °F 93% 30.15 in 10.0 mi Calm Calm - N/A   Clear
2:35 AM 39.2 °F - 37.0 °F 92% 30.15 in 10.0 mi Calm Calm - N/A   Clear
2:55 AM 39.2 °F - 37.4 °F 93% 30.15 in 10.0 mi Calm Calm - N/A   Clear
3:15 AM 39.6 °F - 37.6 °F 93% 30.15 in 10.0 mi Calm Calm - N/A   Clear
3:35 AM 40.8 °F - 36.5 °F 85% 30.16 in 10.0 mi Calm Calm - N/A   Clear
3:55 AM 38.1 °F - 36.0 °F 92% 30.15 in 10.0 mi Calm Calm - N/A   Clear
4:15 AM 40.1 °F - 35.8 °F 85% 30.15 in 10.0 mi Calm Calm - N/A   Clear
4:35 AM 39.2 °F 37.0 °F 35.2 °F 86% 30.14 in 10.0 mi East 3.5 mph - N/A   Clear
4:55 AM 38.7 °F 36.3 °F 35.1 °F 87% 30.14 in 10.0 mi ENE 3.5 mph - N/A   Clear
5:15 AM 38.3 °F - 35.1 °F 88% 30.14 in 10.0 mi Calm Calm - N/A   Clear
5:35 AM 39.6 °F - 34.7 °F 83% 30.14 in 10.0 mi Calm Calm - N/A   Clear
5:55 AM 37.8 °F - 34.9 °F 89% 30.14 in 10.0 mi Calm Calm - N/A   Clear
6:15 AM 39.4 °F - 35.4 °F 86% 30.14 in 10.0 mi Calm Calm - N/A   Clear
6:35 AM 39.0 °F - 34.9 °F 85% 30.15 in 10.0 mi Calm Calm - N/A   Clear
6:55 AM 37.4 °F - 35.1 °F 91% 30.15 in 10.0 mi Calm Calm - N/A   Clear
7:15 AM 37.8 °F - 35.2 °F 91% 30.16 in 10.0 mi Calm Calm - N/A   Clear
7:35 AM 38.8 °F - 35.6 °F 88% 30.16 in 10.0 mi Calm Calm - N/A   Clear
7:55 AM 41.4 °F - 38.1 °F 88% 30.16 in 10.0 mi Calm Calm - N/A   Clear
8:15 AM 43.9 °F - 39.4 °F 84% 30.17 in 10.0 mi Calm Calm - N/A   Clear
8:35 AM 45.7 °F - 40.3 °F 81% 30.17 in 10.0 mi Calm Calm - N/A   Clear
8:55 AM 49.6 °F - 41.5 °F 74% 30.18 in 10.0 mi ESE 5.8 mph - N/A   Clear
9:15 AM 52.7 °F - 41.4 °F 65% 30.17 in 10.0 mi ESE 8.1 mph - N/A   Clear
9:35 AM 54.0 °F - 41.7 °F 63% 30.17 in 10.0 mi ESE 8.1 mph - N/A   Clear
9:55 AM 57.2 °F - 42.6 °F 58% 30.17 in 10.0 mi East 9.2 mph - N/A   Clear
10:15 AM 57.9 °F - 41.9 °F 55% 30.16 in 10.0 mi SE 12.7 mph 19.6 mph N/A   Clear
10:35 AM 58.6 °F - 41.4 °F 53% 30.17 in 10.0 mi ESE 15.0 mph 20.7 mph N/A   Clear
10:55 AM 58.3 °F - 41.5 °F 54% 30.17 in 10.0 mi ESE 13.8 mph 20.7 mph N/A   Clear
11:15 AM 59.7 °F - 43.0 °F 54% 30.17 in 10.0 mi SE 11.5 mph 19.6 mph N/A   Clear
11:35 AM 61.2 °F - 43.7 °F 53% 30.17 in 10.0 mi SE 12.7 mph 21.9 mph N/A   Clear
11:55 AM 61.2 °F - 43.7 °F 53% 30.16 in 10.0 mi SSE 12.7 mph 21.9 mph N/A   Clear
12:15 PM 61.9 °F - 44.6 °F 53% 30.15 in 10.0 mi SE 11.5 mph 18.4 mph N/A   Clear
12:35 PM 61.7 °F - 45.1 °F 55% 30.14 in 10.0 mi SSE 13.8 mph 19.6 mph N/A   Clear
1:15 PM 63.7 °F - 46.0 °F 53% 30.11 in 10.0 mi SE 11.5 mph 16.1 mph N/A   Clear
1:35 PM 63.7 °F - 46.4 °F 53% 30.10 in 10.0 mi SE 9.2 mph 18.4 mph N/A   Clear
1:55 PM 64.2 °F - 45.3 °F 50% 30.09 in 10.0 mi SSE 12.7 mph 21.9 mph N/A   Clear
2:15 PM 65.5 °F - 45.9 °F 49% 30.08 in 10.0 mi SE 12.7 mph 20.7 mph N/A   Clear
2:35 PM 65.8 °F - 45.9 °F 48% 30.08 in 10.0 mi SSE 15.0 mph 20.7 mph N/A   Clear
2:55 PM 64.9 °F - 45.5 °F 49% 30.07 in 10.0 mi SSE 13.8 mph 20.7 mph N/A   Clear
3:15 PM 66.4 °F - 46.6 °F 49% 30.05 in 10.0 mi SE 11.5 mph 18.4 mph N/A   Clear
3:35 PM 67.6 °F - 46.2 °F 46% 30.04 in 10.0 mi SSE 16.1 mph 19.6 mph N/A   Clear
3:55 PM 67.3 °F - 45.9 °F 46% 30.03 in 10.0 mi SSE 9.2 mph 24.2 mph N/A   Clear
4:15 PM 67.8 °F - 46.0 °F 46% 30.02 in 10.0 mi SE 13.8 mph 20.7 mph N/A   Clear
4:35 PM 67.3 °F - 45.9 °F 46% 30.02 in 10.0 mi SE 11.5 mph 18.4 mph N/A   Clear
4:55 PM 67.5 °F - 45.9 °F 46% 30.01 in 10.0 mi ESE 10.4 mph 19.6 mph N/A   Scattered Clouds
5:15 PM 66.7 °F - 46.6 °F 48% 30.01 in 10.0 mi SE 9.2 mph - N/A   Clear
5:35 PM 66.0 °F - 47.3 °F 51% 30.01 in 10.0 mi SSE 6.9 mph - N/A   Clear
5:55 PM 66.7 °F - 46.9 °F 49% 30.01 in 10.0 mi SSE 10.4 mph - N/A   Clear
6:15 PM 65.8 °F - 46.9 °F 50% 30.00 in 10.0 mi SE 10.4 mph 18.4 mph N/A   Scattered Clouds
6:35 PM 64.9 °F - 47.1 °F 52% 30.01 in 10.0 mi SE 9.2 mph - N/A   Clear
6:55 PM 64.6 °F - 47.3 °F 53% 30.00 in 10.0 mi SE 8.1 mph - N/A   Clear
7:15 PM 63.5 °F - 48.0 °F 57% 30.00 in 10.0 mi SE 9.2 mph - N/A   Clear
7:35 PM 62.2 °F - 48.2 °F 60% 30.01 in 10.0 mi SE 8.1 mph - N/A   Scattered Clouds
7:55 PM 61.7 °F - 48.2 °F 61% 30.00 in 10.0 mi SE 8.1 mph - N/A   Clear
8:15 PM 60.8 °F - 48.2 °F 63% 30.00 in 10.0 mi SE 6.9 mph - N/A   Clear
8:35 PM 59.9 °F - 48.7 °F 67% 30.01 in 10.0 mi SE 9.2 mph - N/A   Scattered Clouds
8:55 PM 59.7 °F - 49.1 °F 68% 30.02 in 10.0 mi SE 6.9 mph - N/A   Scattered Clouds
9:15 PM 59.0 °F - 49.1 °F 70% 30.01 in 10.0 mi SE 9.2 mph - N/A   Clear
9:35 PM 58.6 °F - 49.3 °F 71% 30.02 in 10.0 mi SE 9.2 mph - N/A   Scattered Clouds
9:55 PM 58.5 °F - 49.6 °F 72% 30.03 in 10.0 mi SE 8.1 mph - N/A   Scattered Clouds
10:15 PM 58.5 °F - 50.0 °F 73% 30.03 in 10.0 mi SE 8.1 mph - N/A   Mostly Cloudy
10:35 PM 57.7 °F - 50.0 °F 75% 30.04 in 10.0 mi SE 8.1 mph - N/A   Scattered Clouds
10:55 PM 56.8 °F - 50.2 °F 78% 30.04 in 10.0 mi ESE 4.6 mph - N/A   Clear
11:15 PM 55.9 °F - 50.2 °F 81% 30.04 in 10.0 mi ESE 4.6 mph - N/A   Clear
11:35 PM 55.6 °F - 50.2 °F 82% 30.04 in 10.0 mi ESE 5.8 mph - N/A   Clear
11:55 PM 55.0 °F - 50.2 °F 84% 30.04 in 10.0 mi ESE 4.6 mph - N/A   Scattered Clouds